Regional Weather Roundup
Issued by NWS

Home | Current Version | Previous Version | Text Only | Print | Product List | Glossary On
Versions: 1 2 3 4 5 6 7 8 9 10 11 12 13 14 15 16 17 18 19 20 21 22 23 24 25 26 27 28 29 30 31 32 33 34 35 36 37 38 39 40 41 42 43 44 45 46 47 48 49 50
000
ASUS44 KOUN 221610
RWROK

WEATHER ROUNDUP FOR OKLAHOMA
NATIONAL WEATHER SERVICE NORMAN OK
1100 AM CDT TUE JUL 22 2014

NOTE: "FAIR" INDICATES FEW OR NO CLOUDS BELOW 12,000 FEET WITH NO
      SIGNIFICANT WEATHER AND/OR OBSTRUCTIONS TO VISIBILITY.

OKZ001>007-009>012-014-015-017-221700-
NORTHWEST OKLAHOMA AND THE PANHANDLE

CITY           SKY/WX    TMP DP  RH WIND       PRES   REMARKS
GAGE           MOSUNNY   88  70  55 S12       30.12R HX  93
ENID/WOODRING  MOSUNNY   88  75  66 S17       30.08F HX  97
$$

OKZ016-021>023-033>039-044-045-221700-
SOUTHWEST OKLAHOMA

CITY           SKY/WX    TMP DP  RH WIND       PRES   REMARKS
LAWTON/REGL    MOSUNNY   88  72  58 S7        30.10S HX  94
LAWTON/FT SILL MOSUNNY   87  74  64 S10       30.10S HX  95
FREDERICK      MOSUNNY   88  73  61 S7        30.07S HX  95
CLINTON        SUNNY     88  69  53 S12       30.14S HX  92
HOBART         MOSUNNY   87  71  58 S10       30.11S HX  93
ALTUS AFB      SUNNY     85  74  69 S10       30.10S HX  93
$$

OKZ018>020-024>031-221700-
CENTRAL OKLAHOMA

CITY           SKY/WX    TMP DP  RH WIND       PRES   REMARKS
OKLAHOMA CITY  PTSUNNY   86  74  67 S9        30.11F HX  94
OKC/WILEY POST MOSUNNY   86  75  69 S10       30.11S HX  95
OKC/TINKER AFB SUNNY     84  74  71 S13       30.12S HX  92
STILLWATER     SUNNY     87  75  67 SW8       30.09F HX  96
$$

OKZ008-013-054>072-221700-
NORTHEAST OKLAHOMA

CITY           SKY/WX    TMP DP  RH WIND       PRES   REMARKS
TULSA          MOSUNNY   84  73  69 S10       30.09S HX  90
TULSA/JONES    MOSUNNY   84  74  71 S10       30.09F HX  91
PONCA CITY     SUNNY     86  74  67 S6        30.08F HX  94
BARTLESVILLE   SUNNY     87  75  67 SW8       30.09F HX  96
MUSKOGEE       MOSUNNY   83  73  72 S6        30.12F
$$

OKZ032-040>043-046>053-073>077-221700-
SOUTH CENTRAL/SOUTHEAST OKLAHOMA

CITY           SKY/WX    TMP DP  RH WIND       PRES   REMARKS
ARDMORE/DWNTWN SUNNY     82  72  69 CALM      30.10S
MCALESTER      SUNNY     83  72  69 SW7       30.12S
$$



USA.gov is the U.S. government's official web portal to all federal, state and local government web resources and services.